This is the latest recevied weather packets stored in our database for station/object AD6NH. If no packets are shown the sender has not sent any weather packets the latest 10 day(s).
| Time | Temp. | Humidity | Pressure | Rain* | Wind** | Luminosity | Snow |
|---|---|---|---|---|---|---|---|
| 1777533154 | 14.44° C | 88% | 1015.8 hPa | 0 mm | - | - | - |
| 1777532554 | 15° C | 88% | 1016 hPa | 0 mm | - | - | - |
| 1777531954 | 14.44° C | 87% | 1015.8 hPa | 0 mm | - | - | - |
| 1777531354 | 15° C | 87% | 1015.9 hPa | 0 mm | - | - | - |
| 1777530754 | 15° C | 87% | 1015.8 hPa | 0 mm | - | - | - |
| 1777530154 | 15° C | 86% | 1016 hPa | 0 mm | - | - | - |
| 1777529554 | 15° C | 86% | 1016.1 hPa | 0 mm | - | - | - |
| 1777528954 | 15° C | 86% | 1016.2 hPa | 0 mm | - | - | - |
| 1777528354 | 15° C | 86% | 1016.4 hPa | 0 mm | - | - | - |
| 1777527754 | 15.56° C | 86% | 1016.4 hPa | 0 mm | - | - | - |
| 1777527154 | 15.56° C | 85% | 1016.4 hPa | 0 mm | - | - | - |
| 1777526554 | 15.56° C | 84% | 1016.3 hPa | 0 mm | - | - | - |
| 1777525954 | 15.56° C | 84% | 1016.3 hPa | 0 mm | - | - | - |
| 1777525354 | 15.56° C | 82% | 1016.3 hPa | 0 mm | - | - | - |
| 1777524754 | 15.56° C | 80% | 1016.1 hPa | 0 mm | - | - | - |
| 1777524154 | 16.11° C | 80% | 1016.2 hPa | 0 mm | - | - | - |
| 1777523554 | 15.56° C | 80% | 1016 hPa | 0 mm | - | - | - |
| 1777522954 | 16.11° C | 78% | 1015.9 hPa | 0 mm | - | - | - |
| 1777522354 | 16.11° C | 77% | 1016 hPa | 0 mm | - | - | - |
| 1777521754 | 16.11° C | 76% | 1016.1 hPa | 0 mm | - | - | - |
| 1777521154 | 16.67° C | 73% | 1015.9 hPa | 0 mm | - | - | - |
| 1777520554 | 16.67° C | 72% | 1015.9 hPa | 0 mm | - | - | - |
| 1777519954 | 16.67° C | 71% | 1015.8 hPa | 0 mm | - | - | - |
| 1777519354 | 17.22° C | 67% | 1015.8 hPa | 0 mm | - | - | - |
| 1777518754 | 17.22° C | 66% | 1015.6 hPa | 0 mm | - | - | - |
* Rain latest hour (hover to see other rain measurements)
** Current wind speed in m/s (hover to see current wind gust speed)